This is the latest recevied weather packets stored in our database for station/object VO2AGO. If no packets are shown the sender has not sent any weather packets the latest 10 day(s).
| Time | Temp. | Humidity | Pressure | Rain* | Wind** | Luminosity | Snow |
|---|---|---|---|---|---|---|---|
| 1777989050 | 10.56° C | - | - | - | 0 m/s | 1110 W/m² | - |
| 1777988600 | 11.67° C | - | - | - | 0 m/s | 1121 W/m² | - |
| 1777988150 | 11.11° C | - | - | - | 0 m/s | 1113 W/m² | - |
| 1777987702 | 11.67° C | 59% | 100.1 hPa | 0 mm | 0 m/s | 1944 W/m² | - |
| 1777987250 | 12.22° C | 70% | 100.1 hPa | 0 mm | 0 m/s | 1863 W/m² | - |
| 1777986799 | 11.67° C | 76% | 100.1 hPa | 0 mm | 0 m/s | 1791 W/m² | - |
| 1777986350 | 10° C | 73% | 100.1 hPa | 0 mm | 0 m/s | 1850 W/m² | - |
| 1777985899 | 10° C | 75% | 100.1 hPa | 0 mm | 0 m/s | 1910 W/m² | - |
| 1777985449 | 8.89° C | 98% | 100.1 hPa | 0 mm | 0 m/s | 1829 W/m² | - |
| 1777985000 | 8.33° C | 85% | 100.1 hPa | 0 mm | 0 m/s | 1753 W/m² | - |
| 1777984550 | 8.33° C | - | - | - | 0 m/s | 1676 W/m² | - |
| 1777984100 | 7.22° C | - | - | - | 0 m/s | 1612 W/m² | - |
| 1777983649 | 6.67° C | - | - | - | 0 m/s | 1545 W/m² | - |
| 1777983199 | 6.67° C | - | - | - | 0 m/s | 873 W/m² | - |
| 1777982750 | 7.22° C | - | - | - | 0 m/s | 1016 W/m² | - |
| 1777982300 | 7.22° C | - | - | - | 0 m/s | 1515 W/m² | - |
| 1777981850 | 6.11° C | - | - | - | 0 m/s | 1355 W/m² | - |
| 1777981401 | 5.56° C | - | - | - | 0 m/s | 1221 W/m² | - |
| 1777980950 | 5.56° C | - | - | - | 0 m/s | 1101 W/m² | - |
| 1777980500 | 5° C | - | - | - | 0 m/s | 1021 W/m² | - |
| 1777980049 | 4.44° C | - | - | - | 0 m/s | 939 W/m² | - |
| 1777979599 | 3.33° C | - | - | - | 0 m/s | 874 W/m² | - |
| 1777979149 | 2.78° C | - | - | - | 0 m/s | 795 W/m² | - |
| 1777978699 | 2.22° C | - | - | - | 0 m/s | 368 W/m² | - |
| 1777978250 | 1.67° C | - | - | - | 0 m/s | 593 W/m² | - |
* Rain since midnight (hover to see other rain measurements)
** Current wind speed in m/s (hover to see current wind gust speed)